Flag for Poland Weather past 2 weeks in Lódz, Poland

Now
64 °F

Sprinkles. Low clouds.


Feels Like: 64 °F
Forecast: 62 / 80 °F
Wind: 2 mph from East

Location: Lodz

Current Time: Jul 25, 2014 at 11:05:47 AM

Latest Report: Jul 25, 2014 at 10:00 AM


Visibility: 4 mi

Pressure: 30.00 "Hg

Humidity: 95%

Dew point: 63 °F

Location of LódzLocation

Historic Weather in Lódz — Graph

°F

Lódz temperature yesterday

Maximum temperature yesterday: 68 °F (at 4:00 PM)
Minimum temperature yesterday: 61 °F (at 4:00 AM)
Average temperature yesterday: 64 °F

Past Weeks' High & Low Weather Summary

 TemperatureHumidityPressure
High88 °F (Jul 20, 4:00 PM)97% (Jul 13, 2:00 AM)30.16 "Hg (Jul 13, 2:00 AM)
Low52 °F (Jul 13, 2:00 AM)27% (Jul 16, 6:00 PM)29.72 "Hg (Jul 10, 9:00 AM)
Average69 °F69%29.95 "Hg
* Reported Jul 10 9:00 AM — Jul 25 9:00 AM, Lódz, Weather by CustomWeather, © 2014

Note: Actual official high and low records may vary slightly from our data, if they occured in-between our weather recording intervals... More about our weather records

Advertising

Lódz weather history for previous 24 hours

 ConditionsComfort  
Time TempWeatherWind HumidityBarometerVisibility
9:00 AM
Jul 25
65 °FThunderstorms. Low clouds.5 mph94%29.99 "Hg6 mi
8:00 AM64 °FSprinkles. Low clouds.5 mph95%29.99 "Hg5 mi
7:00 AM63 °FLight rain. Low clouds.6 mph94%29.98 "Hg7 mi
6:00 AM63 °FOvercast.5 mph92%29.97 "Hg9 mi
5:00 AM63 °FOvercast.6 mph93%29.96 "Hg12 mi
4:00 AM63 °FOvercast.6 mph93%29.96 "Hg6 mi
3:00 AM63 °FSprinkles. Overcast.6 mph94%29.96 "Hg6 mi
2:00 AM63 °FSprinkles. Overcast.6 mph94%29.98 "Hg6 mi
1:00 AM64 °FLight rain. Overcast.6 mph93%29.98 "Hg6 mi
12:00 AM64 °FOvercast.2 mph95%29.98 "Hg7 mi
11:00 PM
Jul 24
64 °FLight rain. Overcast.1 mph93%29.97 "Hg6 mi
10:00 PM64 °FLight rain. Overcast.3 mph92%29.96 "Hg6 mi
9:00 PM64 °FLight rain. Overcast.2 mph93%29.96 "Hg6 mi
8:00 PM65 °FLight rain. Overcast.7 mph88%29.96 "Hg7 mi
7:00 PM66 °FLight rain. Overcast.7 mph82%29.94 "Hg9 mi
6:00 PM66 °FSprinkles. Overcast.5 mph90%29.95 "Hg6 mi
5:00 PM67 °FSprinkles. Overcast.3 mph88%29.93 "Hg6 mi
4:00 PM68 °FSprinkles. Overcast.5 mph81%29.93 "Hg6 mi
3:00 PM67 °FLight rain. Overcast.5 mph82%29.93 "Hg7 mi
2:00 PM65 °FLight rain. Overcast.5 mph88%29.94 "Hg9 mi
1:00 PM66 °FLight rain. Overcast.6 mph88%29.94 "Hg8 mi
12:00 PM65 °FLight rain. Overcast.6 mph89%29.93 "Hg7 mi
11:00 AM63 °FLight rain. Overcast.6 mph92%29.94 "Hg6 mi
Weather by CustomWeather, © 2014

See weather overviewHow to use our weather pages